Wetterdaten: aktuell Freitag, 18.01.2019 08:36
Datum Zeit Temp. I. Temp. 2m Temp. 5cm Temp. Gr 2m LF I. Luftf.2m LG Graben Luftdruck Regen Wind Richtung Richtung Taupunkt Windchill Windben
18.01.2019 08:36 23,7 C -0,9 C 0,1 C -0,5 C 32 % 78 % 78 % 1016,6 hPa 0,0 l/m 9,2 km/h (2 Bft) W 270 -4,2 C -3,7 C 24,4 km/h (4 Bft)
18.01.2019 08:34 23,7 C -0,9 C 0,1 C -0,5 C 32 % 78 % 78 % 1016,6 hPa 0,0 l/m 8,5 km/h (2 Bft) W-NW 292 -4,2 C -3,1 C 6,5 km/h (2 Bft)
18.01.2019 08:32 23,7 C -0,9 C 0,1 C -0,5 C 32 % 78 % 77 % 1016,6 hPa 0,0 l/m 9,0 km/h (2 Bft) W-NW 292 -4,2 C -3,6 C 20,5 km/h (4 Bft)
18.01.2019 08:30 23,7 C -0,8 C 0,1 C -0,5 C 32 % 77 % 77 % 1016,6 hPa 0,0 l/m 8,0 km/h (2 Bft) W 270 -4,3 C -2,5 C 20,5 km/h (4 Bft)
18.01.2019 08:28 23,7 C -0,8 C 0,1 C -0,5 C 32 % 77 % 78 % 1016,1 hPa 0,0 l/m 8,2 km/h (2 Bft) W 270 -4,3 C -2,7 C 29,0 km/h (5 Bft)
18.01.2019 08:26 23,6 C -0,8 C 0,1 C -0,5 C 32 % 77 % 78 % 1016,1 hPa 0,0 l/m 8,2 km/h (2 Bft) W 270 -4,3 C -2,7 C 29,0 km/h (5 Bft)
18.01.2019 08:24 23,6 C -0,8 C 0,1 C -0,4 C 32 % 77 % 78 % 1016,1 hPa 0,0 l/m 8,2 km/h (2 Bft) NW 315 -4,3 C -2,7 C 28,5 km/h (4 Bft)
18.01.2019 08:22 23,6 C -0,8 C 0,1 C -0,4 C 32 % 77 % 78 % 1016,1 hPa 0,0 l/m 6,8 km/h (2 Bft) W-SW 247 -4,3 C -1,2 C 11,6 km/h (2 Bft)
18.01.2019 08:20 23,6 C -0,7 C 0,1 C -0,4 C 32 % 77 % 78 % 1016,1 hPa 0,0 l/m 7,6 km/h (2 Bft) NO 45 -4,2 C -2,0 C 22,0 km/h (4 Bft)
18.01.2019 08:18 23,6 C -0,7 C 0,1 C -0,4 C 32 % 77 % 78 % 1016,1 hPa 0,0 l/m 7,7 km/h (2 Bft) W-SW 247 -4,2 C -2,1 C 22,0 km/h (4 Bft)
18.01.2019 08:16 23,6 C -0,7 C 0,1 C -0,4 C 32 % 78 % 78 % 1016,1 hPa 0,0 l/m 8,4 km/h (2 Bft) W 270 -4,0 C -2,8 C 16,2 km/h (3 Bft)
18.01.2019 08:14 23,6 C -0,7 C 0,1 C -0,3 C 32 % 78 % 79 % 1016,1 hPa 0,0 l/m 8,0 km/h (2 Bft) N 360 -4,0 C -2,4 C 15,0 km/h (3 Bft)
18.01.2019 08:12 23,6 C -0,5 C 0,1 C -0,3 C 32 % 78 % 79 % 1016,1 hPa 0,0 l/m 8,7 km/h (2 Bft) N 360 -3,9 C -2,8 C 15,2 km/h (3 Bft)
18.01.2019 08:10 23,6 C -0,5 C 0,1 C -0,3 C 32 % 78 % 79 % 1016,1 hPa 0,0 l/m 9,8 km/h (2 Bft) W-NW 292 -3,9 C -3,8 C 15,2 km/h (3 Bft)
18.01.2019 08:08 23,6 C -0,5 C 0,1 C -0,3 C 32 % 78 % 79 % 1015,6 hPa 0,0 l/m 10,0 km/h (2 Bft) W-NW 292 -3,9 C -4,0 C 23,7 km/h (4 Bft)
18.01.2019 08:06 23,5 C -0,4 C 0,1 C -0,3 C 32 % 78 % 79 % 1015,6 hPa 0,0 l/m 8,5 km/h (2 Bft) W 270 -3,8 C -2,6 C 23,7 km/h (4 Bft)
18.01.2019 08:02 23,5 C -0,4 C 0,1 C -0,3 C 32 % 79 % 79 % 1015,6 hPa 0,0 l/m 8,2 km/h (2 Bft) W-NW 292 -3,6 C -2,3 C 21,2 km/h (4 Bft)
18.01.2019 08:00 23,5 C -0,4 C 0,1 C -0,1 C 32 % 79 % 79 % 1015,6 hPa 0,0 l/m 6,9 km/h (2 Bft) W 270 -3,6 C -0,9 C 23,4 km/h (4 Bft)
18.01.2019 07:58 23,5 C -0,4 C 0,1 C -0,1 C 32 % 80 % 80 % 1015,6 hPa 0,0 l/m 7,6 km/h (2 Bft) W-NW 292 -3,4 C -1,7 C 23,4 km/h (4 Bft)
18.01.2019 07:56 23,4 C -0,4 C 0,1 C -0,1 C 32 % 80 % 80 % 1015,6 hPa 0,0 l/m 8,5 km/h (2 Bft) S-SO 157 -3,4 C -2,6 C 24,6 km/h (4 Bft)
18.01.2019 07:54 23,4 C -0,4 C 0,1 C -0,1 C 32 % 80 % 80 % 1015,6 hPa 0,0 l/m 9,3 km/h (2 Bft) NO 45 -3,4 C -3,3 C 24,6 km/h (4 Bft)
18.01.2019 07:52 23,4 C -0,4 C 0,1 C -0,1 C 32 % 81 % 80 % 1015,6 hPa 0,0 l/m 10,8 km/h (2 Bft) NO 45 -3,3 C -4,5 C 12,8 km/h (3 Bft)
18.01.2019 07:50 23,4 C -0,4 C 0,1 C -0,1 C 32 % 81 % 80 % 1015,6 hPa 0,0 l/m 12,9 km/h (3 Bft) N-NW 337 -3,3 C -6,1 C 39,6 km/h (6 Bft)
18.01.2019 07:48 23,4 C -0,4 C 0,1 C -0,1 C 32 % 82 % 81 % 1015,3 hPa 0,0 l/m 14,6 km/h (3 Bft) NO 45 -3,1 C -7,2 C 39,6 km/h (6 Bft)
18.01.2019 07:46 23,4 C -0,4 C 0,1 C -0,2 C 32 % 84 % 81 % 1015,3 hPa 0,0 l/m 14,5 km/h (3 Bft) N-NO 22 -2,8 C -7,2 C 29,7 km/h (5 Bft)
18.01.2019 07:44 23,4 C -0,4 C 0,1 C -0,2 C 32 % 84 % 82 % 1015,3 hPa 0,0 l/m 14,5 km/h (3 Bft) W 270 -2,8 C -7,2 C 27,8 km/h (4 Bft)
18.01.2019 07:42 23,4 C -0,4 C 0,1 C -0,2 C 32 % 84 % 83 % 1015,3 hPa 0,0 l/m 12,9 km/h (3 Bft) N 360 -2,8 C -6,1 C 34,0 km/h (5 Bft)
18.01.2019 07:40 23,4 C -0,4 C 0,1 C -0,2 C 32 % 85 % 83 % 1015,3 hPa 0,0 l/m 11,4 km/h (2 Bft) NO 45 -2,6 C -5,0 C 49,7 km/h (6 Bft)
18.01.2019 07:38 23,4 C -0,4 C 0,1 C -0,3 C 32 % 85 % 84 % 1015,3 hPa 0,0 l/m 10,3 km/h (2 Bft) N-NO 22 -2,6 C -4,1 C 49,7 km/h (6 Bft)
18.01.2019 07:36 23,4 C -0,4 C 0,1 C -0,3 C 32 % 85 % 84 % 1015,3 hPa 0,0 l/m 7,4 km/h (2 Bft) NO 45 -2,6 C -1,5 C 21,2 km/h (4 Bft)
18.01.2019 07:34 23,4 C -0,4 C 0,1 C -0,2 C 33 % 86 % 84 % 1015,3 hPa 0,0 l/m 5,6 km/h (1 Bft) N-NO 22 -2,4 C -0,4 C 13,0 km/h (3 Bft)
18.01.2019 07:32 23,4 C -0,4 C 0,1 C -0,2 C 32 % 86 % 84 % 1015,3 hPa 0,0 l/m 4,2 km/h (1 Bft) N 360 -2,4 C -0,4 C 12,1 km/h (2 Bft)
18.01.2019 07:30 23,4 C -0,4 C 0,3 C -0,2 C 33 % 86 % 84 % 1015,3 hPa 0,0 l/m 3,7 km/h (1 Bft) N-NW 337 -2,4 C -0,4 C 18,1 km/h (3 Bft)
18.01.2019 07:28 23,2 C -0,4 C 0,3 C 0,0 C 33 % 86 % 84 % 1015,1 hPa 0,0 l/m 2,6 km/h (1 Bft) N-NO 22 -2,4 C -0,4 C 18,1 km/h (3 Bft)
18.01.2019 07:26 23,2 C -0,4 C 0,3 C 0,0 C 33 % 86 % 85 % 1015,1 hPa 0,0 l/m 1,8 km/h (1 Bft) O-NO 67 -2,4 C -0,4 C 7,2 km/h (2 Bft)
18.01.2019 07:24 23,2 C -0,4 C 0,3 C 0,0 C 33 % 86 % 85 % 1015,1 hPa 0,0 l/m 1,4 km/h (1 Bft) S-SO 157 -2,4 C -0,4 C 2,9 km/h (1 Bft)
18.01.2019 07:22 23,2 C -0,3 C 0,3 C 0,0 C 33 % 86 % 85 % 1015,1 hPa 0,0 l/m 1,6 km/h (1 Bft) S-SW 202 -2,3 C -0,3 C 7,2 km/h (2 Bft)
18.01.2019 07:20 23,2 C -0,3 C 0,3 C 0,1 C 33 % 86 % 85 % 1015,1 hPa 0,0 l/m 1,8 km/h (1 Bft) W 270 -2,3 C -0,3 C 7,2 km/h (2 Bft)
18.01.2019 07:18 23,2 C -0,3 C 0,3 C 0,1 C 33 % 87 % 85 % 1015,1 hPa 0,0 l/m 1,6 km/h (1 Bft) N-NW 337 -2,2 C -0,3 C 5,6 km/h (1 Bft)
18.01.2019 07:16 23,2 C -0,3 C 0,3 C 0,1 C 33 % 87 % 86 % 1015,1 hPa 0,0 l/m 1,8 km/h (1 Bft) NO 45 -2,2 C -0,3 C 5,6 km/h (1 Bft)
18.01.2019 07:14 23,3 C -0,3 C 0,3 C 0,1 C 33 % 87 % 86 % 1015,1 hPa 0,0 l/m 1,8 km/h (1 Bft) NW 315 -2,2 C -0,3 C 3,1 km/h (1 Bft)
18.01.2019 07:12 23,3 C -0,3 C 0,3 C 0,0 C 33 % 87 % 86 % 1015,1 hPa 0,0 l/m 2,1 km/h (1 Bft) N 360 -2,2 C -0,3 C 5,8 km/h (2 Bft)
18.01.2019 07:10 23,3 C -0,3 C 0,3 C 0,0 C 33 % 87 % 86 % 1015,1 hPa 0,0 l/m 3,2 km/h (1 Bft) W 270 -2,2 C -0,3 C 5,8 km/h (2 Bft)
18.01.2019 07:08 23,2 C -0,1 C 0,3 C 0,0 C 33 % 87 % 86 % 1014,5 hPa 0,0 l/m 3,5 km/h (1 Bft) N 360 -2,0 C -0,1 C 4,8 km/h (1 Bft)
18.01.2019 07:06 23,2 C -0,1 C 0,3 C 0,0 C 33 % 87 % 86 % 1014,5 hPa 0,0 l/m 4,2 km/h (1 Bft) O 90 -2,0 C -0,1 C 8,4 km/h (2 Bft)
18.01.2019 07:02 23,2 C -0,1 C 0,3 C 0,0 C 33 % 87 % 86 % 1014,5 hPa 0,0 l/m 4,7 km/h (1 Bft) NO 45 -2,0 C -0,1 C 15,7 km/h (3 Bft)
18.01.2019 07:00 23,2 C -0,1 C 0,3 C 0,1 C 33 % 87 % 86 % 1014,5 hPa 0,0 l/m 4,7 km/h (1 Bft) W 270 -2,0 C -0,1 C 15,7 km/h (3 Bft)
18.01.2019 06:58 23,2 C -0,1 C 0,3 C 0,1 C 33 % 87 % 86 % 1014,5 hPa 0,0 l/m 4,5 km/h (1 Bft) N-NW 337 -2,0 C -0,1 C 15,7 km/h (3 Bft)
18.01.2019 06:56 23,2 C -0,1 C 0,3 C 0,1 C 33 % 87 % 87 % 1014,5 hPa 0,0 l/m 6,1 km/h (2 Bft) W 270 -2,0 C -0,1 C 15,7 km/h (3 Bft)
18.01.2019 06:54 23,2 C -0,1 C 0,3 C 0,1 C 33 % 87 % 87 % 1014,5 hPa 0,0 l/m 6,8 km/h (2 Bft) SW 225 -2,0 C -0,5 C 15,4 km/h (3 Bft)
18.01.2019 06:52 23,2 C -0,1 C 0,3 C 0,1 C 33 % 87 % 87 % 1014,5 hPa 0,0 l/m 7,7 km/h (2 Bft) W-SW 247 -2,0 C -1,5 C 20,5 km/h (4 Bft)
18.01.2019 06:50 23,2 C -0,1 C 0,4 C 0,1 C 33 % 87 % 87 % 1014,5 hPa 0,0 l/m 8,5 km/h (2 Bft) W 270 -2,0 C -2,2 C 20,5 km/h (4 Bft)
18.01.2019 06:48 23,2 C -0,1 C 0,4 C 0,1 C 33 % 88 % 87 % 1013,8 hPa 0,0 l/m 9,2 km/h (2 Bft) W-SW 247 -1,8 C -2,9 C 29,9 km/h (5 Bft)
18.01.2019 06:46 23,2 C -0,1 C 0,4 C 0,1 C 33 % 88 % 87 % 1013,8 hPa 0,0 l/m 9,3 km/h (2 Bft) W-NW 292 -1,8 C -3,0 C 29,9 km/h (5 Bft)
18.01.2019 06:44 23,2 C -0,1 C 0,4 C 0,1 C 33 % 88 % 87 % 1013,8 hPa 0,0 l/m 8,9 km/h (2 Bft) NW 315 -1,8 C -2,6 C 15,9 km/h (3 Bft)
18.01.2019 06:42 23,2 C -0,1 C 0,4 C 0,1 C 33 % 88 % 87 % 1013,8 hPa 0,0 l/m 8,0 km/h (2 Bft) W 270 -1,8 C -1,8 C 19,3 km/h (3 Bft)
18.01.2019 06:40 23,2 C -0,1 C 0,4 C 0,1 C 33 % 88 % 87 % 1013,8 hPa 0,0 l/m 8,4 km/h (2 Bft) W 270 -1,8 C -2,1 C 19,3 km/h (3 Bft)
18.01.2019 06:38 23,1 C -0,1 C 0,4 C 0,1 C 33 % 88 % 87 % 1013,8 hPa 0,0 l/m 9,2 km/h (2 Bft) N-NW 337 -1,8 C -2,9 C 19,3 km/h (3 Bft)
18.01.2019 06:36 23,1 C -0,1 C 0,4 C 0,1 C 33 % 88 % 87 % 1013,8 hPa 0,0 l/m 9,0 km/h (2 Bft) W-NW 292 -1,8 C -2,7 C 19,3 km/h (3 Bft)
18.01.2019 06:34 23,1 C -0,1 C 0,4 C 0,2 C 33 % 88 % 87 % 1013,8 hPa 0,0 l/m 8,5 km/h (2 Bft) W 270 -1,8 C -2,2 C 15,9 km/h (3 Bft)
18.01.2019 06:32 23,1 C -0,1 C 0,4 C 0,2 C 33 % 88 % 87 % 1013,8 hPa 0,0 l/m 8,5 km/h (2 Bft) W-SW 247 -1,8 C -2,2 C 17,9 km/h (3 Bft)
18.01.2019 06:30 23,1 C -0,1 C 0,4 C 0,1 C 33 % 88 % 87 % 1013,8 hPa 0,0 l/m 9,5 km/h (2 Bft) W-NW 292 -1,8 C -3,1 C 21,2 km/h (4 Bft)
18.01.2019 06:28 23,1 C -0,1 C 0,4 C 0,1 C 33 % 88 % 87 % 1013,0 hPa 0,0 l/m 9,0 km/h (2 Bft) W 270 -1,8 C -2,7 C 21,2 km/h (4 Bft)
18.01.2019 06:26 23,0 C -0,1 C 0,4 C 0,2 C 33 % 88 % 87 % 1013,0 hPa 0,0 l/m 7,4 km/h (2 Bft) W 270 -1,8 C -1,1 C 17,6 km/h (3 Bft)
18.01.2019 06:24 23,0 C -0,1 C 0,4 C 0,2 C 33 % 88 % 87 % 1013,0 hPa 0,0 l/m 8,9 km/h (2 Bft) N-NW 337 -1,8 C -2,6 C 17,9 km/h (3 Bft)
18.01.2019 06:22 23,0 C -0,1 C 0,4 C 0,2 C 33 % 88 % 87 % 1013,0 hPa 0,0 l/m 10,5 km/h (2 Bft) W 270 -1,8 C -4,0 C 17,9 km/h (3 Bft)
18.01.2019 06:20 23,0 C -0,1 C 0,4 C 0,2 C 33 % 88 % 87 % 1013,0 hPa 0,0 l/m 9,8 km/h (2 Bft) W-NW 292 -1,8 C -3,4 C 23,2 km/h (4 Bft)
18.01.2019 06:18 23,0 C -0,1 C 0,4 C 0,2 C 33 % 88 % 87 % 1013,0 hPa 0,0 l/m 10,3 km/h (2 Bft) N-NW 337 -1,8 C -3,8 C 23,2 km/h (4 Bft)
18.01.2019 06:16 23,0 C -0,1 C 0,4 C 0,2 C 33 % 88 % 87 % 1013,0 hPa 0,0 l/m 11,7 km/h (2 Bft) N-NO 22 -1,8 C -4,9 C 27,5 km/h (4 Bft)
18.01.2019 06:14 23,0 C -0,1 C 0,4 C 0,2 C 33 % 88 % 87 % 1013,0 hPa 0,0 l/m 11,4 km/h (2 Bft) W 270 -1,8 C -4,7 C 27,5 km/h (4 Bft)
18.01.2019 06:12 22,9 C -0,1 C 0,4 C 0,2 C 33 % 88 % 87 % 1013,0 hPa 0,0 l/m 10,5 km/h (2 Bft) NW 315 -1,8 C -4,0 C 26,3 km/h (4 Bft)
18.01.2019 06:10 22,9 C -0,1 C 0,4 C 0,2 C 33 % 88 % 87 % 1013,0 hPa 0,0 l/m 10,5 km/h (2 Bft) NW 315 -1,8 C -4,0 C 18,6 km/h (3 Bft)
18.01.2019 06:08 22,9 C -0,1 C 0,4 C 0,2 C 33 % 88 % 87 % 1013,0 hPa 0,0 l/m 10,3 km/h (2 Bft) SO 135 -1,8 C -3,8 C 32,1 km/h (5 Bft)
18.01.2019 06:06 22,9 C -0,1 C 0,4 C 0,2 C 33 % 88 % 87 % 1013,0 hPa 0,0 l/m 10,0 km/h (2 Bft) W 270 -1,8 C -3,6 C 17,1 km/h (3 Bft)
18.01.2019 06:02 22,8 C -0,1 C 0,4 C 0,2 C 33 % 88 % 87 % 1013,0 hPa 0,0 l/m 9,8 km/h (2 Bft) SW 225 -1,8 C -3,4 C 24,9 km/h (4 Bft)
18.01.2019 06:00 22,8 C 0,0 C 0,4 C 0,2 C 33 % 88 % 87 % 1013,0 hPa 0,0 l/m 9,8 km/h (2 Bft) NW 315 -1,7 C -3,3 C 20,8 km/h (4 Bft)
18.01.2019 05:58 22,8 C 0,0 C 0,4 C 0,2 C 33 % 88 % 87 % 1013,0 hPa 0,0 l/m 10,5 km/h (2 Bft) W-NW 292 -1,7 C -3,9 C 21,7 km/h (4 Bft)
18.01.2019 05:56 22,8 C 0,0 C 0,4 C 0,2 C 33 % 88 % 87 % 1013,0 hPa 0,0 l/m 10,3 km/h (2 Bft) W-NW 292 -1,7 C -3,7 C 21,7 km/h (4 Bft)
18.01.2019 05:54 22,8 C 0,0 C 0,4 C 0,2 C 33 % 88 % 87 % 1013,0 hPa 0,0 l/m 9,5 km/h (2 Bft) W 270 -1,7 C -3,0 C 16,7 km/h (3 Bft)
18.01.2019 05:52 22,8 C 0,0 C 0,4 C 0,2 C 33 % 88 % 87 % 1013,0 hPa 0,0 l/m 9,8 km/h (2 Bft) W-NW 292 -1,7 C -3,3 C 16,7 km/h (3 Bft)
18.01.2019 05:50 22,7 C 0,0 C 0,4 C 0,3 C 33 % 88 % 87 % 1013,0 hPa 0,0 l/m 10,3 km/h (2 Bft) W-NW 292 -1,7 C -3,7 C 31,4 km/h (5 Bft)
18.01.2019 05:48 22,7 C 0,0 C 0,4 C 0,3 C 33 % 88 % 87 % 1012,9 hPa 0,0 l/m 9,2 km/h (2 Bft) W 270 -1,7 C -2,8 C 31,4 km/h (5 Bft)
18.01.2019 05:46 22,7 C 0,0 C 0,4 C 0,3 C 34 % 88 % 87 % 1012,9 hPa 0,0 l/m 8,4 km/h (2 Bft) O-NO 67 -1,7 C -2,0 C 28,0 km/h (4 Bft)
18.01.2019 05:44 22,7 C 0,0 C 0,4 C 0,3 C 34 % 88 % 87 % 1012,9 hPa 0,0 l/m 7,7 km/h (2 Bft) NW 315 -1,7 C -1,3 C 23,9 km/h (4 Bft)
18.01.2019 05:42 22,6 C 0,0 C 0,4 C 0,3 C 34 % 88 % 87 % 1012,9 hPa 0,0 l/m 8,9 km/h (2 Bft) W-NW 292 -1,7 C -2,5 C 23,9 km/h (4 Bft)
18.01.2019 05:40 22,6 C 0,0 C 0,4 C 0,3 C 34 % 88 % 87 % 1012,9 hPa 0,0 l/m 9,2 km/h (2 Bft) N-NW 337 -1,7 C -2,8 C 21,7 km/h (4 Bft)
18.01.2019 05:38 22,6 C 0,0 C 0,4 C 0,3 C 34 % 88 % 87 % 1012,9 hPa 0,0 l/m 8,2 km/h (2 Bft) W 270 -1,7 C -1,8 C 20,5 km/h (4 Bft)
18.01.2019 05:36 22,6 C 0,0 C 0,4 C 0,3 C 34 % 88 % 87 % 1012,9 hPa 0,0 l/m 8,5 km/h (2 Bft) W-NW 292 -1,7 C -2,1 C 20,5 km/h (4 Bft)
18.01.2019 05:34 22,6 C 0,0 C 0,4 C 0,3 C 34 % 88 % 87 % 1012,9 hPa 0,0 l/m 9,0 km/h (2 Bft) NW 315 -1,7 C -2,6 C 30,4 km/h (5 Bft)
18.01.2019 05:32 22,5 C 0,0 C 0,4 C 0,3 C 34 % 88 % 87 % 1012,9 hPa 0,0 l/m 9,2 km/h (2 Bft) W-NW 292 -1,7 C -2,8 C 30,4 km/h (5 Bft)
18.01.2019 05:30 22,5 C 0,0 C 0,4 C 0,3 C 34 % 88 % 87 % 1012,9 hPa 0,0 l/m 8,4 km/h (2 Bft) W 270 -1,7 C -2,0 C 11,6 km/h (2 Bft)
18.01.2019 05:28 22,5 C 0,1 C 0,4 C 0,3 C 34 % 88 % 87 % 1012,4 hPa 0,0 l/m 8,4 km/h (2 Bft) W 270 -1,6 C -1,9 C 11,6 km/h (2 Bft)
18.01.2019 05:26 22,4 C 0,1 C 0,4 C 0,3 C 34 % 88 % 87 % 1012,4 hPa 0,0 l/m 8,7 km/h (2 Bft) W-SW 247 -1,6 C -2,2 C 18,1 km/h (3 Bft)
18.01.2019 05:24 22,4 C 0,1 C 0,4 C 0,3 C 34 % 88 % 87 % 1012,4 hPa 0,0 l/m 8,7 km/h (2 Bft) N-NW 337 -1,6 C -2,2 C 19,3 km/h (3 Bft)
18.01.2019 05:22 22,4 C 0,1 C 0,4 C 0,3 C 34 % 88 % 87 % 1012,4 hPa 0,0 l/m 8,7 km/h (2 Bft) W 270 -1,6 C -2,2 C 19,3 km/h (3 Bft)
18.01.2019 05:20 22,4 C 0,1 C 0,4 C 0,3 C 34 % 88 % 87 % 1012,4 hPa 0,0 l/m 9,8 km/h (2 Bft) W 270 -1,6 C -3,2 C 19,1 km/h (3 Bft)
18.01.2019 05:18 22,4 C 0,1 C 0,4 C 0,5 C 34 % 88 % 87 % 1012,4 hPa 0,0 l/m 9,5 km/h (2 Bft) SW 225 -1,6 C -2,9 C 19,1 km/h (3 Bft)
18.01.2019 05:16 22,2 C 0,1 C 0,4 C 0,5 C 34 % 88 % 87 % 1012,4 hPa 0,0 l/m 8,9 km/h (2 Bft) NW 315 -1,6 C -2,4 C 16,4 km/h (3 Bft)
18.01.2019 05:14 22,2 C 0,1 C 0,4 C 0,5 C 34 % 88 % 87 % 1012,4 hPa 0,0 l/m 7,9 km/h (2 Bft) W 270 -1,6 C -1,4 C 19,6 km/h (3 Bft)
18.01.2019 05:12 22,2 C 0,1 C 0,4 C 0,5 C 34 % 88 % 87 % 1012,4 hPa 0,0 l/m 8,7 km/h (2 Bft) W 270 -1,6 C -2,2 C 23,7 km/h (4 Bft)
18.01.2019 05:10 22,3 C 0,1 C 0,4 C 0,5 C 34 % 88 % 87 % 1012,4 hPa 0,0 l/m 8,4 km/h (2 Bft) W-SW 247 -1,6 C -1,9 C 23,7 km/h (4 Bft)
18.01.2019 05:08 22,3 C 0,1 C 0,4 C 0,5 C 34 % 88 % 87 % 1012,4 hPa 0,0 l/m 8,0 km/h (2 Bft) W-NW 292 -1,6 C -1,5 C 13,8 km/h (3 Bft)
18.01.2019 05:06 22,3 C 0,2 C 0,4 C 0,5 C 34 % 88 % 87 % 1012,4 hPa 0,0 l/m 9,2 km/h (2 Bft) NW 315 -1,5 C -2,5 C 13,8 km/h (3 Bft)
18.01.2019 05:02 22,2 C 0,2 C 0,4 C 0,5 C 33 % 88 % 87 % 1012,4 hPa 0,0 l/m 10,9 km/h (2 Bft) NO 45 -1,5 C -3,9 C 24,9 km/h (4 Bft)
18.01.2019 05:00 22,4 C 0,2 C 0,4 C 0,5 C 33 % 88 % 87 % 1012,4 hPa 0,0 l/m 10,3 km/h (2 Bft) N-NW 337 -1,5 C -3,5 C 21,0 km/h (4 Bft)
18.01.2019 04:58 22,2 C 0,2 C 0,4 C 0,5 C 33 % 87 % 87 % 1012,4 hPa 0,0 l/m 9,8 km/h (2 Bft) NW 315 -1,7 C -3,1 C 21,0 km/h (4 Bft)
18.01.2019 04:56 22,4 C 0,2 C 0,4 C 0,6 C 33 % 87 % 87 % 1012,4 hPa 0,0 l/m 9,2 km/h (2 Bft) W 270 -1,7 C -2,5 C 23,9 km/h (4 Bft)
18.01.2019 04:54 22,4 C 0,2 C 0,4 C 0,6 C 33 % 87 % 87 % 1012,4 hPa 0,0 l/m 8,5 km/h (2 Bft) W 270 -1,7 C -1,9 C 24,9 km/h (4 Bft)
18.01.2019 04:52 22,4 C 0,2 C 0,4 C 0,6 C 33 % 87 % 87 % 1012,4 hPa 0,0 l/m 9,0 km/h (2 Bft) W-NW 292 -1,7 C -2,4 C 24,9 km/h (4 Bft)
18.01.2019 04:50 22,4 C 0,2 C 0,5 C 0,6 C 33 % 87 % 87 % 1012,4 hPa 0,0 l/m 9,3 km/h (2 Bft) O-NO 67 -1,7 C -2,6 C 12,8 km/h (3 Bft)
18.01.2019 04:48 22,4 C 0,2 C 0,4 C 0,6 C 33 % 87 % 87 % 1012,2 hPa 0,0 l/m 11,1 km/h (2 Bft) W 270 -1,7 C -4,1 C 21,2 km/h (4 Bft)
18.01.2019 04:46 22,4 C 0,4 C 0,4 C 0,6 C 33 % 87 % 87 % 1012,2 hPa 0,0 l/m 11,3 km/h (2 Bft) W 270 -1,5 C -4,0 C 21,2 km/h (4 Bft)
18.01.2019 04:44 22,4 C 0,4 C 0,5 C 0,6 C 33 % 87 % 87 % 1012,2 hPa 0,0 l/m 11,6 km/h (2 Bft) NW 315 -1,5 C -4,3 C 23,2 km/h (4 Bft)
18.01.2019 04:42 22,4 C 0,4 C 0,4 C 0,6 C 33 % 87 % 87 % 1012,2 hPa 0,0 l/m 11,7 km/h (2 Bft) NW 315 -1,5 C -4,3 C 23,2 km/h (4 Bft)
18.01.2019 04:40 22,4 C 0,4 C 0,4 C 0,6 C 33 % 87 % 87 % 1012,2 hPa 0,0 l/m 11,4 km/h (2 Bft) W 270 -1,5 C -4,1 C 30,2 km/h (5 Bft)
18.01.2019 04:38 22,4 C 0,4 C 0,5 C 0,6 C 33 % 87 % 87 % 1012,2 hPa 0,0 l/m 10,5 km/h (2 Bft) W 270 -1,5 C -3,4 C 30,2 km/h (5 Bft)
18.01.2019 04:36 22,4 C 0,4 C 0,4 C 0,6 C 33 % 87 % 87 % 1012,2 hPa 0,0 l/m 9,8 km/h (2 Bft) NW 315 -1,5 C -2,8 C 24,1 km/h (4 Bft)
18.01.2019 04:34 22,4 C 0,4 C 0,5 C 0,6 C 33 % 87 % 87 % 1012,2 hPa 0,0 l/m 9,3 km/h (2 Bft) W 270 -1,5 C -2,4 C 24,1 km/h (4 Bft)
18.01.2019 04:32 22,4 C 0,4 C 0,4 C 0,7 C 33 % 87 % 87 % 1012,2 hPa 0,0 l/m 8,4 km/h (2 Bft) W-SW 247 -1,5 C -1,6 C 24,6 km/h (4 Bft)
18.01.2019 04:30 22,4 C 0,4 C 0,4 C 0,7 C 33 % 87 % 87 % 1012,2 hPa 0,0 l/m 8,4 km/h (2 Bft) W 270 -1,5 C -1,6 C 24,6 km/h (4 Bft)
18.01.2019 04:28 22,4 C 0,5 C 0,4 C 0,7 C 33 % 87 % 87 % 1012,6 hPa 0,0 l/m 7,7 km/h (2 Bft) N 360 -1,4 C -0,8 C 26,1 km/h (4 Bft)
18.01.2019 04:26 22,4 C 0,5 C 0,4 C 0,7 C 33 % 87 % 87 % 1012,6 hPa 0,0 l/m 7,1 km/h (2 Bft) W 270 -1,4 C -0,2 C 26,1 km/h (4 Bft)
18.01.2019 04:24 22,5 C 0,5 C 0,4 C 0,7 C 33 % 87 % 87 % 1012,6 hPa 0,0 l/m 5,6 km/h (1 Bft) W-NW 292 -1,4 C 0,5 C 9,4 km/h (2 Bft)
18.01.2019 04:22 22,5 C 0,5 C 0,4 C 0,7 C 33 % 87 % 87 % 1012,6 hPa 0,0 l/m 5,8 km/h (2 Bft) W 270 -1,4 C 0,5 C 13,8 km/h (3 Bft)
18.01.2019 04:20 22,5 C 0,5 C 0,4 C 0,7 C 33 % 86 % 86 % 1012,6 hPa 0,0 l/m 5,0 km/h (1 Bft) W 270 -1,6 C 0,5 C 13,8 km/h (3 Bft)
18.01.2019 04:18 22,4 C 0,5 C 0,4 C 0,7 C 33 % 86 % 86 % 1012,6 hPa 0,0 l/m 4,8 km/h (1 Bft) W 270 -1,6 C 0,5 C 13,5 km/h (3 Bft)
18.01.2019 04:16 22,5 C 0,6 C 0,4 C 0,8 C 33 % 86 % 86 % 1012,6 hPa 0,0 l/m 6,3 km/h (2 Bft) W 270 -1,5 C 0,6 C 10,1 km/h (2 Bft)
18.01.2019 04:14 22,5 C 0,6 C 0,4 C 0,8 C 33 % 86 % 86 % 1012,6 hPa 0,0 l/m 6,3 km/h (2 Bft) W 270 -1,5 C 0,6 C 10,1 km/h (2 Bft)
18.01.2019 04:12 22,5 C 0,6 C 0,4 C 0,8 C 33 % 86 % 86 % 1012,6 hPa 0,0 l/m 6,3 km/h (2 Bft) W 270 -1,5 C 0,6 C 10,1 km/h (2 Bft)
18.01.2019 04:10 22,5 C 0,6 C 0,4 C 0,8 C 33 % 86 % 86 % 1012,6 hPa 0,0 l/m 6,3 km/h (2 Bft) W 270 -1,5 C 0,6 C 10,1 km/h (2 Bft)
18.01.2019 04:06 22,5 C 0,6 C 0,4 C 0,8 C 33 % 86 % 86 % 1012,6 hPa 0,0 l/m 6,4 km/h (2 Bft) W 270 -1,5 C 0,6 C 8,0 km/h (2 Bft)
18.01.2019 04:00 22,6 C 0,6 C 0,4 C 0,8 C 33 % 86 % 86 % 1012,6 hPa 0,0 l/m 5,1 km/h (1 Bft) W 270 -1,5 C 0,6 C 15,0 km/h (3 Bft)
18.01.2019 03:58 22,6 C 0,6 C 0,4 C 0,8 C 33 % 86 % 86 % 1012,6 hPa 0,0 l/m 4,7 km/h (1 Bft) W 270 -1,5 C 0,6 C 11,3 km/h (2 Bft)
18.01.2019 03:56 22,6 C 0,7 C 0,4 C 0,8 C 33 % 86 % 86 % 1012,6 hPa 0,0 l/m 4,7 km/h (1 Bft) W 270 -1,4 C 0,7 C 9,9 km/h (2 Bft)
18.01.2019 03:54 22,6 C 0,7 C 0,4 C 0,8 C 33 % 86 % 86 % 1012,6 hPa 0,0 l/m 5,0 km/h (1 Bft) W-NW 292 -1,4 C 0,7 C 13,0 km/h (3 Bft)
18.01.2019 03:52 22,6 C 0,7 C 0,3 C 0,8 C 33 % 86 % 86 % 1012,6 hPa 0,0 l/m 5,5 km/h (1 Bft) N-NW 337 -1,4 C 0,7 C 13,0 km/h (3 Bft)
18.01.2019 03:50 22,6 C 0,7 C 0,3 C 0,8 C 33 % 86 % 86 % 1012,6 hPa 0,0 l/m 5,5 km/h (1 Bft) NW 315 -1,4 C 0,7 C 8,2 km/h (2 Bft)
18.01.2019 03:48 22,6 C 0,7 C 0,3 C 0,8 C 33 % 86 % 86 % 1012,3 hPa 0,0 l/m 6,0 km/h (2 Bft) W-SW 247 -1,4 C 0,7 C 18,3 km/h (3 Bft)
18.01.2019 03:46 22,6 C 0,7 C 0,3 C 0,9 C 33 % 86 % 86 % 1012,3 hPa 0,0 l/m 6,0 km/h (2 Bft) W 270 -1,4 C 0,7 C 18,3 km/h (3 Bft)
18.01.2019 03:44 22,7 C 0,7 C 0,3 C 0,9 C 33 % 86 % 86 % 1012,3 hPa 0,0 l/m 5,3 km/h (1 Bft) NW 315 -1,4 C 0,7 C 15,7 km/h (3 Bft)
18.01.2019 03:42 22,7 C 0,7 C 0,3 C 0,9 C 33 % 86 % 86 % 1012,3 hPa 0,0 l/m 4,3 km/h (1 Bft) W-SW 247 -1,4 C 0,7 C 8,7 km/h (2 Bft)
18.01.2019 03:40 22,7 C 0,7 C 0,3 C 0,9 C 33 % 86 % 86 % 1012,3 hPa 0,0 l/m 4,7 km/h (1 Bft) N-NW 337 -1,4 C 0,7 C 9,4 km/h (2 Bft)
18.01.2019 03:38 22,7 C 0,8 C 0,3 C 0,9 C 33 % 86 % 86 % 1012,3 hPa 0,0 l/m 4,8 km/h (1 Bft) NW 315 -1,3 C 0,8 C 9,4 km/h (2 Bft)
18.01.2019 03:36 22,7 C 0,8 C 0,3 C 0,9 C 33 % 86 % 86 % 1012,3 hPa 0,0 l/m 4,5 km/h (1 Bft) W-NW 292 -1,3 C 0,8 C 6,3 km/h (2 Bft)
18.01.2019 03:34 22,7 C 0,8 C 0,3 C 1,1 C 33 % 86 % 86 % 1012,3 hPa 0,0 l/m 4,5 km/h (1 Bft) W-SW 247 -1,3 C 0,8 C 8,9 km/h (2 Bft)
18.01.2019 03:32 22,7 C 0,8 C 0,3 C 1,1 C 33 % 86 % 86 % 1012,3 hPa 0,0 l/m 5,0 km/h (1 Bft) W-NW 292 -1,3 C 0,8 C 8,9 km/h (2 Bft)
18.01.2019 03:30 22,7 C 0,8 C 0,3 C 1,1 C 33 % 86 % 86 % 1012,3 hPa 0,0 l/m 5,0 km/h (1 Bft) N-NW 337 -1,3 C 0,8 C 14,2 km/h (3 Bft)
18.01.2019 03:28 22,7 C 0,9 C 0,3 C 1,1 C 33 % 86 % 86 % 1012,1 hPa 0,0 l/m 5,3 km/h (1 Bft) W-NW 292 -1,2 C 0,9 C 14,2 km/h (3 Bft)
18.01.2019 03:26 22,8 C 0,9 C 0,3 C 1,1 C 33 % 86 % 86 % 1012,1 hPa 0,0 l/m 5,6 km/h (1 Bft) W-NW 292 -1,2 C 0,9 C 10,6 km/h (2 Bft)
18.01.2019 03:24 22,7 C 0,9 C 0,3 C 1,2 C 33 % 86 % 86 % 1012,1 hPa 0,0 l/m 6,1 km/h (2 Bft) NW 315 -1,2 C 0,9 C 10,6 km/h (2 Bft)
18.01.2019 03:22 22,8 C 0,9 C 0,3 C 1,2 C 33 % 86 % 86 % 1012,1 hPa 0,0 l/m 5,8 km/h (2 Bft) W 270 -1,2 C 0,9 C 9,4 km/h (2 Bft)
18.01.2019 03:20 22,8 C 0,9 C 0,3 C 1,2 C 33 % 86 % 86 % 1012,1 hPa 0,0 l/m 6,3 km/h (2 Bft) W-NW 292 -1,2 C 0,9 C 10,1 km/h (2 Bft)
18.01.2019 03:18 22,8 C 1,1 C 0,2 C 1,2 C 33 % 86 % 86 % 1012,1 hPa 0,0 l/m 6,1 km/h (2 Bft) W 270 -1,0 C 1,1 C 13,5 km/h (3 Bft)
18.01.2019 03:16 22,8 C 1,1 C 0,3 C 1,2 C 33 % 86 % 86 % 1012,1 hPa 0,0 l/m 6,6 km/h (2 Bft) W-NW 292 -1,0 C 0,9 C 14,0 km/h (3 Bft)
18.01.2019 03:14 22,8 C 1,1 C 0,2 C 1,3 C 33 % 86 % 86 % 1012,1 hPa 0,0 l/m 6,4 km/h (2 Bft) W 270 -1,0 C 1,1 C 14,0 km/h (3 Bft)
18.01.2019 03:12 22,8 C 1,1 C 0,2 C 1,3 C 33 % 86 % 86 % 1012,1 hPa 0,0 l/m 6,4 km/h (2 Bft) W-SW 247 -1,0 C 1,1 C 10,9 km/h (2 Bft)
18.01.2019 03:10 22,8 C 1,1 C 0,2 C 1,3 C 33 % 86 % 86 % 1012,1 hPa 0,0 l/m 6,6 km/h (2 Bft) W 270 -1,0 C 0,9 C 10,9 km/h (2 Bft)
18.01.2019 03:08 22,8 C 1,1 C 0,2 C 1,3 C 33 % 86 % 86 % 1012,1 hPa 0,0 l/m 7,9 km/h (2 Bft) W 270 -1,0 C -0,4 C 19,6 km/h (3 Bft)
18.01.2019 03:06 22,8 C 1,2 C 0,3 C 1,3 C 33 % 86 % 86 % 1012,1 hPa 0,0 l/m 7,7 km/h (2 Bft) W-SW 247 -0,9 C -0,1 C 19,6 km/h (3 Bft)
18.01.2019 03:02 22,8 C 1,2 C 0,2 C 1,4 C 33 % 86 % 86 % 1012,1 hPa 0,0 l/m 6,3 km/h (2 Bft) NW 315 -0,9 C 1,2 C 17,1 km/h (3 Bft)
18.01.2019 03:00 22,8 C 1,2 C 0,2 C 1,4 C 33 % 86 % 86 % 1012,1 hPa 0,0 l/m 6,4 km/h (2 Bft) W 270 -0,9 C 1,2 C 14,2 km/h (3 Bft)
18.01.2019 02:58 22,8 C 1,2 C 0,2 C 1,4 C 33 % 86 % 86 % 1012,1 hPa 0,0 l/m 4,5 km/h (1 Bft) W-SW 247 -0,9 C 1,2 C 18,3 km/h (3 Bft)
18.01.2019 02:56 22,8 C 1,2 C 0,3 C 1,4 C 33 % 86 % 86 % 1012,1 hPa 0,0 l/m 3,9 km/h (1 Bft) W 270 -0,9 C 1,2 C 18,3 km/h (3 Bft)
18.01.2019 02:54 22,8 C 1,2 C 0,3 C 1,4 C 33 % 86 % 87 % 1012,1 hPa 0,0 l/m 3,1 km/h (1 Bft) O-SO 112 -0,9 C 1,2 C 6,0 km/h (2 Bft)
18.01.2019 02:52 22,9 C 1,2 C 0,3 C 1,4 C 33 % 86 % 86 % 1012,1 hPa 0,0 l/m 3,7 km/h (1 Bft) S-SW 202 -0,9 C 1,2 C 23,9 km/h (4 Bft)
18.01.2019 02:50 22,9 C 1,2 C 0,3 C 1,4 C 33 % 86 % 86 % 1012,1 hPa 0,0 l/m 4,3 km/h (1 Bft) W 270 -0,9 C 1,2 C 23,9 km/h (4 Bft)
18.01.2019 02:48 22,9 C 1,2 C 0,5 C 1,4 C 33 % 86 % 86 % 1012,1 hPa 0,0 l/m 4,8 km/h (1 Bft) NO 45 -0,9 C 1,2 C 4,8 km/h (1 Bft)
18.01.2019 02:46 22,9 C 1,2 C 0,3 C 1,4 C 33 % 86 % 86 % 1012,1 hPa 0,0 l/m 6,6 km/h (2 Bft) N 360 -0,9 C 1,0 C 4,8 km/h (1 Bft)
18.01.2019 02:44 22,9 C 1,2 C 0,3 C 1,5 C 33 % 86 % 86 % 1012,1 hPa 0,0 l/m 6,8 km/h (2 Bft) W-SW 247 -0,9 C 0,8 C 17,6 km/h (3 Bft)
18.01.2019 02:42 22,9 C 1,3 C 0,3 C 1,5 C 33 % 86 % 86 % 1012,1 hPa 0,0 l/m 8,2 km/h (2 Bft) W 270 -0,8 C -0,5 C 22,4 km/h (4 Bft)
18.01.2019 02:40 22,9 C 1,3 C 0,3 C 1,5 C 33 % 86 % 86 % 1012,1 hPa 0,0 l/m 8,4 km/h (2 Bft) W 270 -0,8 C -0,7 C 22,4 km/h (4 Bft)
18.01.2019 02:38 22,9 C 1,3 C 0,3 C 1,5 C 33 % 86 % 86 % 1012,1 hPa 0,0 l/m 8,4 km/h (2 Bft) W 270 -0,8 C -0,7 C 34,8 km/h (5 Bft)
18.01.2019 02:36 22,9 C 1,3 C 0,3 C 1,5 C 33 % 86 % 86 % 1012,1 hPa 0,0 l/m 9,2 km/h (2 Bft) NW 315 -0,8 C -1,4 C 34,8 km/h (5 Bft)
18.01.2019 02:34 22,9 C 1,3 C 0,3 C 1,6 C 33 % 86 % 86 % 1012,1 hPa 0,0 l/m 9,7 km/h (2 Bft) W-SW 247 -0,8 C -1,8 C 26,8 km/h (4 Bft)
18.01.2019 02:32 23,0 C 1,4 C 0,3 C 1,6 C 33 % 86 % 86 % 1012,1 hPa 0,0 l/m 10,1 km/h (2 Bft) W 270 -0,7 C -2,0 C 26,8 km/h (4 Bft)
18.01.2019 02:30 23,0 C 1,4 C 0,3 C 1,6 C 33 % 86 % 86 % 1012,1 hPa 0,0 l/m 11,3 km/h (2 Bft) W-NW 292 -0,7 C -2,9 C 24,9 km/h (4 Bft)
18.01.2019 02:28 23,0 C 1,4 C 0,3 C 1,6 C 33 % 86 % 86 % 1012,1 hPa 0,0 l/m 12,2 km/h (2 Bft) W 270 -0,7 C -3,5 C 24,9 km/h (4 Bft)
18.01.2019 02:26 23,0 C 1,4 C 0,3 C 1,6 C 33 % 86 % 86 % 1012,1 hPa 0,0 l/m 11,6 km/h (2 Bft) W 270 -0,7 C -3,1 C 29,0 km/h (5 Bft)
18.01.2019 02:24 23,0 C 1,5 C 0,3 C 1,6 C 33 % 86 % 86 % 1012,1 hPa 0,0 l/m 11,4 km/h (2 Bft) W-NW 292 -0,6 C -2,9 C 29,0 km/h (5 Bft)
18.01.2019 02:22 23,0 C 1,5 C 0,3 C 1,6 C 33 % 86 % 86 % 1012,1 hPa 0,0 l/m 11,4 km/h (2 Bft) W-SW 247 -0,6 C -2,9 C 22,9 km/h (4 Bft)
18.01.2019 02:20 23,0 C 1,5 C 0,3 C 1,8 C 33 % 86 % 86 % 1012,1 hPa 0,0 l/m 12,1 km/h (2 Bft) W 270 -0,6 C -3,3 C 28,0 km/h (4 Bft)
18.01.2019 02:18 23,0 C 1,5 C 0,3 C 1,8 C 33 % 86 % 86 % 1012,1 hPa 0,0 l/m 10,5 km/h (2 Bft) NW 315 -0,6 C -2,2 C 28,0 km/h (4 Bft)
18.01.2019 02:16 23,1 C 1,5 C 0,3 C 1,8 C 33 % 86 % 86 % 1012,1 hPa 0,0 l/m 11,6 km/h (2 Bft) N-NW 337 -0,6 C -3,0 C 19,8 km/h (3 Bft)
18.01.2019 02:14 23,1 C 1,6 C 0,3 C 1,8 C 33 % 86 % 86 % 1012,1 hPa 0,0 l/m 11,7 km/h (2 Bft) W 270 -0,5 C -3,0 C 19,8 km/h (3 Bft)
18.01.2019 02:12 23,1 C 1,6 C 0,3 C 1,8 C 33 % 86 % 86 % 1012,1 hPa 0,0 l/m 10,9 km/h (2 Bft) S-SW 202 -0,5 C -2,4 C 23,4 km/h (4 Bft)
18.01.2019 02:10 23,1 C 1,6 C 0,3 C 1,8 C 33 % 86 % 86 % 1012,1 hPa 0,0 l/m 11,1 km/h (2 Bft) W-NW 292 -0,5 C -2,5 C 23,4 km/h (4 Bft)
18.01.2019 02:08 23,1 C 1,6 C 0,3 C 1,8 C 33 % 86 % 86 % 1012,0 hPa 0,0 l/m 10,6 km/h (2 Bft) NW 315 -0,5 C -2,1 C 33,3 km/h (5 Bft)
18.01.2019 02:06 23,1 C 1,6 C 0,3 C 1,9 C 33 % 86 % 86 % 1012,0 hPa 0,0 l/m 10,6 km/h (2 Bft) W 270 -0,5 C -2,1 C 33,3 km/h (5 Bft)
18.01.2019 02:02 23,1 C 1,6 C 0,3 C 1,9 C 33 % 86 % 86 % 1012,0 hPa 0,0 l/m 10,0 km/h (2 Bft) W-SW 247 -0,5 C -1,7 C 29,7 km/h (5 Bft)
18.01.2019 02:00 23,2 C 1,6 C 0,3 C 1,9 C 33 % 86 % 87 % 1012,0 hPa 0,0 l/m 9,5 km/h (2 Bft) W-NW 292 -0,5 C -1,3 C 29,7 km/h (5 Bft)
18.01.2019 01:58 23,2 C 1,8 C 0,3 C 1,9 C 33 % 86 % 87 % 1012,0 hPa 0,0 l/m 8,2 km/h (2 Bft) NW 315 -0,3 C 0,1 C 35,2 km/h (5 Bft)
18.01.2019 01:56 23,2 C 1,8 C 0,3 C 1,9 C 33 % 86 % 87 % 1012,0 hPa 0,0 l/m 9,0 km/h (2 Bft) N-NW 337 -0,3 C -0,6 C 35,2 km/h (5 Bft)
18.01.2019 01:54 23,2 C 1,8 C 0,3 C 1,9 C 33 % 86 % 87 % 1012,0 hPa 0,0 l/m 9,0 km/h (2 Bft) NW 315 -0,3 C -0,6 C 30,4 km/h (5 Bft)
18.01.2019 01:52 23,2 C 1,8 C 0,3 C 2,0 C 33 % 86 % 87 % 1012,0 hPa 0,0 l/m 9,5 km/h (2 Bft) N-NW 337 -0,3 C -1,1 C 30,4 km/h (5 Bft)
18.01.2019 01:50 23,2 C 1,8 C 0,3 C 2,0 C 33 % 86 % 87 % 1012,0 hPa 0,0 l/m 9,0 km/h (2 Bft) W-SW 247 -0,3 C -0,6 C 11,8 km/h (2 Bft)
18.01.2019 01:48 23,2 C 1,8 C 0,3 C 2,0 C 33 % 86 % 87 % 1012,0 hPa 0,0 l/m 9,8 km/h (2 Bft) W-SW 247 -0,3 C -1,3 C 27,3 km/h (4 Bft)
18.01.2019 01:46 23,2 C 1,8 C 0,3 C 2,0 C 33 % 86 % 87 % 1012,0 hPa 0,0 l/m 9,5 km/h (2 Bft) W 270 -0,3 C -1,1 C 27,3 km/h (4 Bft)
18.01.2019 01:44 23,2 C 1,8 C 0,3 C 2,0 C 33 % 86 % 87 % 1012,0 hPa 0,0 l/m 9,8 km/h (2 Bft) W 270 -0,3 C -1,3 C 21,5 km/h (4 Bft)
18.01.2019 01:42 23,2 C 1,8 C 0,3 C 2,0 C 33 % 87 % 87 % 1012,0 hPa 0,0 l/m 9,7 km/h (2 Bft) N-NW 337 -0,1 C -1,2 C 21,5 km/h (4 Bft)
18.01.2019 01:40 23,2 C 1,8 C 0,3 C 1,9 C 33 % 87 % 87 % 1012,0 hPa 0,0 l/m 9,5 km/h (2 Bft) W 270 -0,1 C -1,1 C 21,5 km/h (4 Bft)
18.01.2019 01:38 23,2 C 1,8 C 0,3 C 1,9 C 33 % 87 % 87 % 1012,0 hPa 0,0 l/m 9,7 km/h (2 Bft) W-SW 247 -0,1 C -1,2 C 21,5 km/h (4 Bft)
18.01.2019 01:36 23,2 C 1,8 C 0,3 C 1,9 C 33 % 87 % 87 % 1012,0 hPa 0,0 l/m 9,7 km/h (2 Bft) O-NO 67 -0,1 C -1,2 C 30,9 km/h (5 Bft)
18.01.2019 01:34 23,2 C 1,8 C 0,3 C 1,9 C 33 % 87 % 88 % 1012,0 hPa 0,0 l/m 8,9 km/h (2 Bft) N-NW 337 -0,1 C -0,6 C 30,9 km/h (5 Bft)
18.01.2019 01:32 23,3 C 1,8 C 0,3 C 2,0 C 33 % 87 % 87 % 1012,0 hPa 0,0 l/m 8,2 km/h (2 Bft) W-SW 247 -0,1 C 0,1 C 29,7 km/h (5 Bft)
18.01.2019 01:30 23,3 C 1,8 C 0,3 C 2,0 C 33 % 87 % 87 % 1012,0 hPa 0,0 l/m 8,9 km/h (2 Bft) O-NO 67 -0,1 C -0,6 C 29,7 km/h (5 Bft)
18.01.2019 01:28 23,2 C 1,8 C 0,3 C 2,0 C 33 % 87 % 87 % 1011,9 hPa 0,0 l/m 8,4 km/h (2 Bft) N-NW 337 -0,1 C -0,1 C 22,0 km/h (4 Bft)
18.01.2019 01:26 23,2 C 1,8 C 0,3 C 2,0 C 33 % 87 % 88 % 1011,9 hPa 0,0 l/m 8,5 km/h (2 Bft) W-SW 247 -0,1 C -0,2 C 18,8 km/h (3 Bft)
18.01.2019 01:24 23,2 C 1,8 C 0,3 C 2,0 C 33 % 87 % 88 % 1011,9 hPa 0,0 l/m 9,3 km/h (2 Bft) W 270 -0,1 C -0,9 C 18,8 km/h (3 Bft)
18.01.2019 01:22 23,4 C 1,8 C 0,3 C 2,0 C 33 % 87 % 88 % 1011,9 hPa 0,0 l/m 8,9 km/h (2 Bft) NO 45 -0,1 C -0,6 C 18,1 km/h (3 Bft)
18.01.2019 01:20 23,4 C 1,8 C 0,3 C 2,0 C 33 % 87 % 88 % 1011,9 hPa 0,0 l/m 8,0 km/h (2 Bft) W 270 -0,1 C 0,2 C 23,4 km/h (4 Bft)
18.01.2019 01:18 23,4 C 1,8 C 0,3 C 2,0 C 33 % 87 % 88 % 1011,9 hPa 0,0 l/m 7,9 km/h (2 Bft) NW 315 -0,1 C 0,3 C 23,4 km/h (4 Bft)
18.01.2019 01:16 23,4 C 1,8 C 0,3 C 2,0 C 33 % 87 % 89 % 1011,9 hPa 0,0 l/m 6,6 km/h (2 Bft) W-SW 247 -0,1 C 1,6 C 16,9 km/h (3 Bft)
18.01.2019 01:14 23,4 C 1,9 C 0,3 C 2,0 C 33 % 87 % 89 % 1011,9 hPa 0,0 l/m 6,3 km/h (2 Bft) W-NW 292 -0,0 C 1,9 C 16,2 km/h (3 Bft)
18.01.2019 01:12 23,4 C 1,9 C 0,3 C 2,0 C 33 % 87 % 89 % 1011,9 hPa 0,0 l/m 6,0 km/h (2 Bft) W-SW 247 -0,0 C 1,9 C 13,0 km/h (3 Bft)
18.01.2019 01:10 23,4 C 1,9 C 0,3 C 2,0 C 33 % 87 % 89 % 1011,9 hPa 0,0 l/m 6,3 km/h (2 Bft) W 270 -0,0 C 1,9 C 16,2 km/h (3 Bft)
18.01.2019 01:08 23,4 C 1,9 C 0,3 C 1,9 C 33 % 87 % 89 % 1011,9 hPa 0,0 l/m 6,3 km/h (2 Bft) W 270 -0,0 C 1,9 C 16,2 km/h (3 Bft)
18.01.2019 01:06 23,4 C 1,9 C 0,3 C 1,9 C 33 % 87 % 89 % 1011,9 hPa 0,0 l/m 6,1 km/h (2 Bft) W-NW 292 -0,0 C 1,9 C 9,2 km/h (2 Bft)
18.01.2019 01:02 23,5 C 1,9 C 0,3 C 1,9 C 33 % 87 % 89 % 1011,9 hPa 0,0 l/m 7,1 km/h (2 Bft) W-SW 247 -0,0 C 1,2 C 26,8 km/h (4 Bft)
18.01.2019 01:00 23,5 C 1,9 C 0,3 C 2,0 C 33 % 87 % 89 % 1011,9 hPa 0,0 l/m 7,6 km/h (2 Bft) W-NW 292 -0,0 C 0,7 C 26,8 km/h (4 Bft)
18.01.2019 00:58 23,5 C 1,9 C 0,3 C 2,0 C 33 % 87 % 89 % 1011,9 hPa 0,0 l/m 8,0 km/h (2 Bft) N-NW 337 -0,0 C 0,3 C 16,2 km/h (3 Bft)
18.01.2019 00:56 23,5 C 1,9 C 0,3 C 2,0 C 33 % 87 % 89 % 1011,9 hPa 0,0 l/m 8,4 km/h (2 Bft) N 360 -0,0 C -0,0 C 30,2 km/h (5 Bft)
18.01.2019 00:54 23,5 C 1,9 C 0,3 C 2,0 C 33 % 87 % 89 % 1011,9 hPa 0,0 l/m 9,2 km/h (2 Bft) W-SW 247 -0,0 C -0,7 C 30,2 km/h (5 Bft)
18.01.2019 00:52 23,6 C 1,9 C 0,3 C 2,0 C 33 % 87 % 89 % 1011,9 hPa 0,0 l/m 9,2 km/h (2 Bft) W-NW 292 -0,0 C -0,7 C 22,7 km/h (4 Bft)
18.01.2019 00:50 23,6 C 1,9 C 0,3 C 2,0 C 33 % 87 % 89 % 1011,9 hPa 0,0 l/m 9,2 km/h (2 Bft) N 360 -0,0 C -0,7 C 22,9 km/h (4 Bft)
18.01.2019 00:48 23,6 C 1,9 C 0,3 C 2,0 C 33 % 88 % 90 % 1012,3 hPa 0,0 l/m 10,3 km/h (2 Bft) NW 315 0,1 C -1,6 C 22,9 km/h (4 Bft)
18.01.2019 00:46 23,6 C 2,0 C 0,3 C 2,0 C 33 % 87 % 90 % 1012,3 hPa 0,0 l/m 10,1 km/h (2 Bft) W 270 0,1 C -1,3 C 23,9 km/h (4 Bft)
18.01.2019 00:44 23,6 C 2,0 C 0,3 C 2,0 C 33 % 87 % 90 % 1012,3 hPa 0,0 l/m 9,5 km/h (2 Bft) W 270 0,1 C -0,8 C 23,9 km/h (4 Bft)
18.01.2019 00:42 23,6 C 2,0 C 0,3 C 2,0 C 33 % 87 % 90 % 1012,3 hPa 0,0 l/m 9,3 km/h (2 Bft) W-NW 292 0,1 C -0,7 C 16,7 km/h (3 Bft)
18.01.2019 00:40 23,6 C 1,9 C 0,3 C 1,9 C 33 % 88 % 90 % 1012,3 hPa 0,0 l/m 10,0 km/h (2 Bft) NW 315 0,1 C -1,4 C 16,7 km/h (3 Bft)
18.01.2019 00:38 23,6 C 1,9 C 0,3 C 1,9 C 33 % 88 % 90 % 1012,3 hPa 0,0 l/m 9,2 km/h (2 Bft) W-NW 292 0,1 C -0,7 C 16,2 km/h (3 Bft)
18.01.2019 00:36 23,7 C 1,9 C 0,3 C 1,9 C 33 % 88 % 90 % 1012,3 hPa 0,0 l/m 9,8 km/h (2 Bft) W-NW 292 0,1 C -1,2 C 22,9 km/h (4 Bft)
18.01.2019 00:34 23,7 C 1,9 C 0,3 C 1,9 C 33 % 88 % 90 % 1012,3 hPa 0,0 l/m 10,9 km/h (2 Bft) W 270 0,1 C -2,0 C 22,9 km/h (4 Bft)
18.01.2019 00:32 23,7 C 1,9 C 0,3 C 1,9 C 33 % 88 % 90 % 1012,3 hPa 0,0 l/m 10,1 km/h (2 Bft) N-NW 337 0,1 C -1,4 C 21,2 km/h (4 Bft)
18.01.2019 00:30 23,7 C 1,9 C 0,3 C 1,9 C 33 % 89 % 90 % 1012,3 hPa 0,0 l/m 9,3 km/h (2 Bft) W 270 0,3 C -0,8 C 17,6 km/h (3 Bft)
18.01.2019 00:28 23,7 C 1,9 C 0,3 C 1,9 C 33 % 89 % 91 % 1012,3 hPa 0,0 l/m 8,9 km/h (2 Bft) S-SW 202 0,3 C -0,5 C 26,3 km/h (4 Bft)
18.01.2019 00:26 23,7 C 1,9 C 0,3 C 1,9 C 33 % 89 % 91 % 1012,3 hPa 0,0 l/m 8,9 km/h (2 Bft) W-NW 292 0,3 C -0,5 C 26,3 km/h (4 Bft)
18.01.2019 00:24 23,8 C 1,9 C 0,3 C 1,8 C 33 % 89 % 91 % 1012,3 hPa 0,0 l/m 7,6 km/h (2 Bft) W 270 0,3 C 0,7 C 24,1 km/h (4 Bft)
18.01.2019 00:22 23,8 C 1,9 C 0,3 C 1,8 C 33 % 89 % 91 % 1012,3 hPa 0,0 l/m 7,6 km/h (2 Bft) W-SW 247 0,3 C 0,7 C 15,2 km/h (3 Bft)
18.01.2019 00:20 23,8 C 1,9 C 0,3 C 1,8 C 33 % 89 % 91 % 1012,3 hPa 0,0 l/m 8,5 km/h (2 Bft) W 270 0,3 C -0,1 C 15,2 km/h (3 Bft)
18.01.2019 00:18 23,8 C 1,9 C 0,5 C 1,8 C 33 % 89 % 91 % 1012,3 hPa 0,0 l/m 7,9 km/h (2 Bft) W 270 0,3 C 0,4 C 13,3 km/h (3 Bft)
18.01.2019 00:16 23,8 C 1,9 C 0,3 C 1,8 C 33 % 89 % 91 % 1012,3 hPa 0,0 l/m 7,6 km/h (2 Bft) W 270 0,3 C 0,7 C 19,6 km/h (3 Bft)
18.01.2019 00:14 23,8 C 1,8 C 0,3 C 1,8 C 33 % 89 % 91 % 1012,3 hPa 0,0 l/m 7,6 km/h (2 Bft) W-NW 292 0,2 C 0,6 C 19,6 km/h (3 Bft)
18.01.2019 00:12 23,8 C 1,8 C 0,3 C 1,8 C 33 % 89 % 91 % 1012,3 hPa 0,0 l/m 7,6 km/h (2 Bft) NW 315 0,2 C 0,6 C 19,1 km/h (3 Bft)
18.01.2019 00:10 23,8 C 1,8 C 0,5 C 1,8 C 33 % 89 % 91 % 1012,3 hPa 0,0 l/m 7,2 km/h (2 Bft) NW 315 0,2 C 1,0 C 19,1 km/h (3 Bft)
18.01.2019 00:08 23,8 C 1,8 C 0,3 C 1,8 C 33 % 89 % 91 % 1012,3 hPa 0,0 l/m 7,6 km/h (2 Bft) N 360 0,2 C 0,6 C 13,8 km/h (3 Bft)
18.01.2019 00:06 23,9 C 1,8 C 0,5 C 1,9 C 33 % 89 % 91 % 1012,3 hPa 0,0 l/m 8,2 km/h (2 Bft) W-NW 292 0,2 C 0,1 C 13,8 km/h (3 Bft)
18.01.2019 00:05 23,9 C 1,8 C 0,5 C 1,9 C 33 % 89 % 91 % 1012,3 hPa 0,0 l/m 7,9 km/h (2 Bft) W-NW 292 0,2 C 0,3 C 17,9 km/h (3 Bft)
18.01.2019 00:02 23,9 C 1,8 C 0,5 C 1,9 C 33 % 89 % 91 % 1012,3 hPa 0,0 l/m 7,4 km/h (2 Bft) N-NW 337 0,2 C 0,8 C 18,6 km/h (3 Bft)
18.01.2019 00:00 23,9 C 1,8 C 0,5 C 1,9 C 33 % 89 % 91 % 1012,3 hPa 0,0 l/m 7,4 km/h (2 Bft) N-NW 337 0,2 C 0,8 C 16,2 km/h (3 Bft)
_ Min-Zeit 04:58 08:32 07:32 08:26 07:32 08:18 08:30 00:50 - 07:24 - - 08:22 07:48 07:24
Minimum _ 22,2 C -0,9 C 0,1 C -0,5 C 32 % 77 % 77 % 1011,9 hPa - 1,4 km/h (1 Bft) - - -4,3 C -7,2 C 2,9 km/h (1 Bft)
_ Max-Zeit 00:00 00:42 00:00 00:42 05:06 00:00 00:00 08:30 00:00 07:48 - - 00:16 01:06 07:38
Maximum _ 23,9 C 2,0 C 0,5 C 2,0 C 34 % 89 % 91 % 1016,6 hPa 0,0 l/m 14,6 km/h
NO (3 Bft)
- - 0,3 C 1,9 C 49,7 km/h
N-NO (6 Bft)
Durchschnitt _ 23,0 C 0,7 C 0,3 C 0,9 C 33 % 86 % 86 % 1013,0 hPa #0,0 l/m 8,0 km/h (2 Bft) W - -1,4 C -1,3 C 19,8 km/h (3 Bft)